Regional Weather Roundup
Issued by NWS Charleston, SC

Home | Current Version | Previous Version | Text Only | Print | Product List | Glossary On
Versions: 1 2 3 4 5 6 7 8 9 10 11 12 13 14 15 16 17 18 19 20 21 22 23 24 25 26 27 28 29 30 31 32 33 34 35 36 37 38 39 40 41 42 43 44 45 46 47 48 49 50
000
ASUS42 KCHS 260425
RWRCHS

REGIONAL WEATHER ROUNDUP
NATIONAL WEATHER SERVICE CHARLESTON SC
1200 AM EDT SUN OCT 26 2014

NOTE: "FAIR" INDICATES FEW OR NO CLOUDS BELOW 12,000 FEET WITH NO
SIGNIFICANT WEATHER AND/OR OBSTRUCTIONS TO VISIBILITY.

NOT ALL STATIONS ARE QUALITY CONTROLLED BY THE NATIONAL
WEATHER SERVICE. USE DATA WITH CAUTION...ESPECIALLY
DEWPOINT OBSERVATIONS.

SCZ027-030-031-034>040-042>050-260500-
...SOUTH CAROLINA...

CITY           SKY/WX    TMP DP  RH WIND       PRES   REMARKS
N CHARLESTON   CLEAR     56  50  80 CALM      29.97F
WATERFRONT PRK   N/A     63 N/A N/A W5          N/A
FORT JOHNSON   NOT AVBL
JOHNS ISLAND   CLEAR     54  52  94 CALM      29.96F
PINOPOLIS      NOT AVBL
MONCKS CORNER  FAIR      50  50 100 CALM      29.96F
SUMMERVILLE    FAIR      50  50 100 CALM      29.97F
BEAUFORT MCAS  CLEAR     54  49  83 SW5       29.98F
BEAUFORT ARPT  FAIR      55  55 100 CALM      29.97F
HILTON HEAD IS   N/A     55  54  94 CALM      29.99F
GEORGETOWN     NOT AVBL
WALTERBORO     CLEAR     50 N/A N/A CALM      29.97F
ORANGEBURG     CLEAR     50  48  93 CALM      29.97F
BARNWELL       FAIR      48  46  93 CALM      29.98F
AIKEN          FAIR      50  46  87 CALM      30.00F
MANNING        FAIR      50 N/A N/A CALM      29.95F
KINGSTREE      NOT AVBL
COLUMBIA       CLEAR     52  46  80 W3        29.96F
SUMTER         CLEAR     53  50  89 SW2       29.93F
FLORENCE       CLEAR     52  44  74 W3        29.93F
MYRTLE BEACH   CLEAR     55  46  71 W7        29.93F
N MYRTLE BEACH CLEAR     56  47  71 W3        29.93F

$$

GAZ063-065-086>088-099>101-113>116-118-119-134-136>141-150-260500-
...GEORGIA...

CITY           SKY/WX    TMP DP  RH WIND       PRES   REMARKS
SAVANNAH ARPT  CLEAR     56  50  80 CALM      29.99F
HUNTER AAF     CLEAR     55  53  93 CALM      29.97F
FORT STEWART   CLEAR     51  47  87 CALM      29.98F
STATESBORO     NOT AVBL
SYLVANIA       CLEAR     56  55  94 CALM      30.00F
CLAXTON        FAIR      52  52 100 CALM      30.00S
THOMSON        CLEAR     54  54 100 CALM      30.03F
AUGUSTA-BUSH   CLEAR     48  43  82 CALM      29.98F
AUGUSTA-DANIEL CLEAR     63  46  54 CALM      29.99F
SWAINSBORO     FAIR      54  50  87 MISG      30.00F
VIDALIA        CLEAR     55  52  88 CALM      30.00F
ALMA           CLEAR     51  49  92 N3        30.00F FOG
WAYCROSS       CLEAR     56  54  92 CALM      30.00F
JESUP          FAIR      57  52  82 W3        30.00F
BRUNSWICK        N/A     54  52  94 CALM      30.00F VSB 1/2
SAINT SIMONS   CLEAR     57  54  89 CALM      30.00S

$$

SCZ027-028-034-036>038-045-046-048>050-GAZ119-141-260500-
...LAKE AND SUPPLEMENTAL COASTAL OBSERVATIONS...

STATION/POSITION TIME  TEMP    WIND        PRES    WAVE   SWELL
                       AIR SEA DIR/SP/G            HT/PER HT/PER/DIR
                 (UTC) (F)     (DEG/KT/KT) (MB)    (FT/S) (FT/S/D)
UPR LAKE MARION  NOT AVBL
WINYAH BAY       0400   58     360/  1     1014.0S
LAKE MURRAY      0300   63     270/  2/  4 1014.2F
ACE BASIN NERRS  0400   55        CALM     1015.0S
FORT PULASKI     0400   64     240/  4/  5 1015.6F
SAPELO ISLAND    NOT AVBL

$$

ANZ835-935-AMZ111-154-330-350-352-354-374-450-454-472-260500-
...C-MAN AND BUOY OBSERVATIONS...

STATION/POSITION TIME  TEMP    WIND        PRES    WAVE   SWELL
                       AIR SEA DIR/SP/G            HT/PER HT/PER/DIR
                 (UTC) (F)     (DEG/KT/KT) (MB)    (FT/S) (FT/S/D)
FOLLY BEACH CMAN 0400   63     250/  4/  6 1015.1F
BUOY 41004       0400   72 77  280/ 10/ 14 1014.2F   2/10   2/10
BUOY 41008       0400   71 74  250/  4/  6 1015.6F   1/10   2/ 90/10
5E ST. MARYS GA  0400      75                N/A     2/11
FRYING PAN BUOY  0400   71 74  280/ 14/ 17 1014.0F   2/ 3   2/ 90/ 8
BUOY 41025       0400   68     250/ 17/ 23 1011.0F   3/ 8   2/ 60/ 8
CAPE LOOKOUT NC  0400   67     270/ 11/ 13 1011.6F
BUOY 41002       0305   72 76  350/  6/ 10 1013.2F   3/10   3/ 20/10
BUOY 41010       0400   76 81  350/ 10/ 16 1014.5F   3/ 5
BUOY 41012       NOT AVBL
ST AUGUSTINE FL  0400   64     300/  5/  5 1016.4F
CAPERS NEARSHORE NOT AVBL
FRIPP NEARSHORE  NOT AVBL


$$



USA.gov is the U.S. government's official web portal to all federal, state and local government web resources and services.